Meteo Giornale » Osservazioni meteo Stati Uniti (USA) » Hilton Head
ore: 04:15 - Osservazioni Meteo Hilton Head
Lat. 32° 13' N Lon. 80° 42' W Alt. 6 metri s.l.m.
25 °C
Sereno
Temp. 24 Ore
23 °C
29 °C
Nord
0 Km/h
Dew point 25 °C
Umidità 100 %
Visibilità 10 Km
Il sole sorge alle ore 06:58
Il sole tramonta alle ore 19:47
| Data e Ora | Cielo e Fenomeni | T °C | DP °C | Um. % | Pres. hPa | Vis. km | Vento km/h | |
|---|---|---|---|---|---|---|---|---|
| Oggi h: 04:15 | Sereno | 25 | 25 | 100 | 1018 | 10 | N 0 | |
| Oggi h: 03:55 | Poco Nuvoloso | 25 | 25 | 100 | 1018 | 10 | N 0 | |
| Oggi h: 03:35 | Nuvoloso | 25 | 25 | 100 | 1018 | 10 | N 0 | |
| Oggi h: 03:15 | Sereno | 25 | 25 | 100 | 1018 | 10 | N 0 | |
| Oggi h: 02:55 | Sereno | 25 | 25 | 100 | 1018 | 10 | N 0 | |
| Oggi h: 02:35 | Sereno | 25 | 25 | 100 | 1018 | 10 | N 0 | |
| Oggi h: 02:15 | Sereno | 25 | 25 | 100 | 1018 | 10 | N 0 | |
| Oggi h: 01:55 | Sereno | 25 | 25 | 100 | 1018 | 10 | N 0 | |
| Oggi h: 01:35 | Sereno | 25 | 25 | 100 | 1018 | 10 | N 0 | |
| Oggi h: 01:15 | Sereno | 25 | 25 | 100 | 1018 | 10 | N 0 | |
| Oggi h: 00:55 | Sereno | 25 | 25 | 100 | 1018 | 10 | N 0 | |
| Oggi h: 00:35 | Sereno | 26 | 25 | 94 | 1018 | 10 | N 0 | |
| Oggi h: 00:15 | Poco Nuvoloso | 26 | 25 | 94 | 1019 | 10 | N 0 | |
| Ieri h: 23:55 | Nuvoloso | 26 | 25 | 94 | 1019 | 10 | N 5.5 | |
| Ieri h: 23:35 | Poco Nuvoloso | 26 | 25 | 94 | 1019 | 10 | N 0 | |
| Ieri h: 23:15 | Poco Nuvoloso | 26 | 25 | 94 | 1019 | 10 | N 0 | |
| Ieri h: 22:55 | Sereno | 26 | 25 | 94 | 1019 | 10 | N 0 | |
| Ieri h: 22:35 | Sereno | 27 | 25 | 88 | 1019 | 10 | N 0 | |
| Ieri h: 22:15 | Sereno | 26 | 25 | 94 | 1019 | 10 | N 0 | |
| Ieri h: 21:55 | Sereno | 27 | 25 | 88 | 1019 | 10 | N 0 | |
| Ieri h: 21:35 | Sereno | 27 | 25 | 88 | 1019 | 10 | N 5.5 | |
| Ieri h: 21:15 | Sereno | 26 | 25 | 94 | 1019 | 10 | N 0 | |
| Ieri h: 20:50 | Sereno | 27 | 25 | 88 | 1018 | 10 | N 5.5 | |
| Ieri h: 19:50 | Sereno | 27 | 24 | 83 | 1018 | 10 | N 0 | |
| Ieri h: 18:50 | Poco Nuvoloso | 28 | 24 | 78 | 1018 | 10 | N 0 | |
| Ieri h: 17:50 | Sereno | 29 | 24 | 74 | 1018 | 10 | N 0 | |
| Ieri h: 16:50 | Sereno | 28 | 23 | 74 | 1018 | 10 | N 5.5 | |
| Ieri h: 15:50 | Poco Nuvoloso | 29 | 24 | 74 | 1018 | 10 | E 11.1 | |
| Ieri h: 14:50 | Nuvoloso | 29 | 24 | 74 | 1019 | 10 | E/NE 11.1 | |
| Ieri h: 13:50 | Nuvoloso | 28 | 25 | 83 | 1020 | 10 | E 11.1 | |
| Ieri h: 12:50 | Nuvoloso | 28 | 25 | 83 | 1020 | 10 | E 11.1 | |
| Ieri h: 11:50 | Nuvoloso | 27 | 24 | 83 | 1021 | 10 | N 0 | |
| Ieri h: 10:50 | Pioggia | 25 | 25 | 100 | 1020 | 10 | N 0 | |
| Ieri h: 09:50 | Temporale nelle vicinanze | 24 | 24 | 100 | 1020 | 10 | N 0 | |
| Ieri h: 08:50 | Temporale nelle vicinanze Pioggia | 23 | 23 | 100 | 1020 | 8 | N/NE 9.3 | |
| Ieri h: 07:50 | Molto Nuvoloso | 25 | 25 | 100 | 1019 | 10 | N/NE 18.5 | |
| Ieri h: 06:50 | Molto Nuvoloso | 26 | 25 | 94 | 1019 | 10 | N/NE 18.5 | |
| Ieri h: 06:35 | Temporale nelle vicinanze | 26 | 25 | 94 | 1018 | 10 | N/NE 16.7 | |
| Ieri h: 06:15 | Poco Nuvoloso | 26 | 25 | 94 | 1018 | 10 | N/NE 14.8 | |
| Ieri h: 05:55 | Poco Nuvoloso | 26 | 25 | 94 | 1018 | 10 | N/NE 13 | |
| Ieri h: 05:35 | Nuvoloso | 26 | 26 | 100 | 1018 | 10 | N/NE 14.8 | |
| Ieri h: 05:15 | Nuvoloso | 26 | 26 | 100 | 1018 | 10 | N/NE 11.1 | |
| Ieri h: 04:55 | Poco Nuvoloso | 26 | 25 | 94 | 1018 | 10 | N/NE 9.3 | |
| Ieri h: 04:35 | Nuvoloso | 25 | 25 | 100 | 1018 | 10 | N 0 | |



